Year,Month,Day,Hour,Minute,Value (Times are PST for temperature in C)
2007,06,19,00,00,9.10
2007,06,19,00,01,9.10
2007,06,19,00,02,9.00
2007,06,19,00,03,9.00
2007,06,19,00,04,9.00
2007,06,19,00,05,9.00
2007,06,19,00,06,9.00
2007,06,19,00,07,9.00
2007,06,19,00,08,9.00
2007,06,19,00,09,9.00
2007,06,19,00,10,9.00
2007,06,19,00,11,9.00
2007,06,19,00,12,9.00
2007,06,19,00,13,8.90
2007,06,19,00,14,8.90
2007,06,19,00,15,8.90
2007,06,19,00,16,8.90
2007,06,19,00,17,8.90
2007,06,19,00,18,8.90
2007,06,19,00,19,8.90
2007,06,19,00,20,8.90
2007,06,19,00,21,8.90
2007,06,19,00,22,8.90
2007,06,19,00,23,8.90
2007,06,19,00,24,8.90
2007,06,19,00,25,8.90
2007,06,19,00,26,8.90
2007,06,19,00,27,8.90
2007,06,19,00,28,8.90
2007,06,19,00,29,8.90
2007,06,19,00,30,8.90
2007,06,19,00,31,8.90
2007,06,19,00,32,8.90
2007,06,19,00,33,9.00
2007,06,19,00,34,9.00
2007,06,19,00,35,8.90
2007,06,19,00,36,8.90
2007,06,19,00,37,8.90
2007,06,19,00,38,8.90
2007,06,19,00,39,8.90
2007,06,19,00,40,8.90
2007,06,19,00,41,8.80
2007,06,19,00,42,8.80
2007,06,19,00,43,8.80
2007,06,19,00,44,8.80
2007,06,19,00,45,8.80
2007,06,19,00,46,8.80
2007,06,19,00,47,8.80
2007,06,19,00,48,8.70
2007,06,19,00,49,8.70
2007,06,19,00,50,8.70
2007,06,19,00,51,8.70
2007,06,19,00,52,8.70
2007,06,19,00,53,8.70
2007,06,19,00,54,8.70
2007,06,19,00,55,8.70
2007,06,19,00,56,8.70
2007,06,19,00,57,8.70
2007,06,19,00,58,8.70
2007,06,19,00,59,8.70
2007,06,19,01,00,8.60
2007,06,19,01,01,8.60
2007,06,19,01,02,8.60
2007,06,19,01,03,8.60
2007,06,19,01,04,8.60
2007,06,19,01,05,8.60
2007,06,19,01,06,8.60
2007,06,19,01,07,8.50
2007,06,19,01,08,8.50
2007,06,19,01,09,8.50
2007,06,19,01,10,8.50
2007,06,19,01,11,8.40
2007,06,19,01,12,8.40
2007,06,19,01,13,8.40
2007,06,19,01,14,8.40
2007,06,19,01,15,8.30
2007,06,19,01,16,8.30
2007,06,19,01,17,8.30
2007,06,19,01,18,8.30
2007,06,19,01,19,8.30
2007,06,19,01,20,8.30
2007,06,19,01,21,8.30
2007,06,19,01,22,8.30
2007,06,19,01,23,8.20
2007,06,19,01,24,8.20
2007,06,19,01,25,8.20
2007,06,19,01,26,8.20
2007,06,19,01,27,8.20
2007,06,19,01,28,8.20
2007,06,19,01,29,8.10
2007,06,19,01,30,8.10
2007,06,19,01,31,8.10
2007,06,19,01,32,8.10
2007,06,19,01,33,8.10
2007,06,19,01,34,8.00
2007,06,19,01,35,8.00
2007,06,19,01,36,8.00
2007,06,19,01,37,8.00
2007,06,19,01,38,7.90
2007,06,19,01,39,7.90
2007,06,19,01,40,7.90
2007,06,19,01,41,7.90
2007,06,19,01,42,7.80
2007,06,19,01,43,7.80
2007,06,19,01,44,7.80
2007,06,19,01,45,7.80
2007,06,19,01,46,7.80
2007,06,19,01,47,7.80
2007,06,19,01,48,7.70
2007,06,19,01,49,7.70
2007,06,19,01,50,7.70
2007,06,19,01,51,7.70
2007,06,19,01,52,7.70
2007,06,19,01,53,7.70
2007,06,19,01,54,7.70
2007,06,19,01,55,7.70
2007,06,19,01,56,7.60
2007,06,19,01,57,7.60
2007,06,19,01,58,7.60
2007,06,19,01,59,7.60
2007,06,19,02,00,7.60
2007,06,19,02,01,7.60
2007,06,19,02,02,7.60
2007,06,19,02,03,7.60
2007,06,19,02,04,7.60
2007,06,19,02,05,7.60
2007,06,19,02,06,7.60
2007,06,19,02,07,7.50
2007,06,19,02,08,7.50
2007,06,19,02,09,7.50
2007,06,19,02,10,7.40
2007,06,19,02,11,7.40
2007,06,19,02,12,7.40
2007,06,19,02,13,7.40
2007,06,19,02,14,7.30
2007,06,19,02,15,7.30
2007,06,19,02,16,7.30
2007,06,19,02,17,7.30
2007,06,19,02,18,7.30
2007,06,19,02,19,7.30
2007,06,19,02,20,7.30
2007,06,19,02,21,7.30
2007,06,19,02,22,7.20
2007,06,19,02,23,7.20
2007,06,19,02,24,7.20
2007,06,19,02,25,7.20
2007,06,19,02,26,7.20
2007,06,19,02,27,7.20
2007,06,19,02,28,7.20
2007,06,19,02,29,7.20
2007,06,19,02,30,7.20
2007,06,19,02,31,7.20
2007,06,19,02,32,7.20
2007,06,19,02,33,7.20
2007,06,19,02,34,7.20
2007,06,19,02,35,7.20
2007,06,19,02,36,7.20
2007,06,19,02,37,7.10
2007,06,19,02,38,7.10
2007,06,19,02,39,7.10
2007,06,19,02,40,7.10
2007,06,19,02,41,7.10
2007,06,19,02,42,7.10
2007,06,19,02,43,7.10
2007,06,19,02,44,7.10
2007,06,19,02,45,7.10
2007,06,19,02,46,7.10
2007,06,19,02,47,7.00
2007,06,19,02,48,7.00
2007,06,19,02,49,7.00
2007,06,19,02,50,7.00
2007,06,19,02,51,7.00
2007,06,19,02,52,7.00
2007,06,19,02,53,7.00
2007,06,19,02,54,6.90
2007,06,19,02,55,6.90
2007,06,19,02,56,6.90
2007,06,19,02,57,6.90
2007,06,19,02,58,6.90
2007,06,19,02,59,6.90
2007,06,19,03,00,6.90
2007,06,19,03,01,6.90
2007,06,19,03,02,6.90
2007,06,19,03,03,6.90
2007,06,19,03,04,6.90
2007,06,19,03,05,6.90
2007,06,19,03,06,6.90
2007,06,19,03,07,6.90
2007,06,19,03,08,6.90
2007,06,19,03,09,6.90
2007,06,19,03,10,6.90
2007,06,19,03,11,6.90
2007,06,19,03,12,6.90
2007,06,19,03,13,6.90
2007,06,19,03,14,6.90
2007,06,19,03,15,6.90
2007,06,19,03,16,6.90
2007,06,19,03,17,6.90
2007,06,19,03,18,6.90
2007,06,19,03,19,6.90
2007,06,19,03,20,6.90
2007,06,19,03,21,6.90
2007,06,19,03,22,6.90
2007,06,19,03,23,6.90
2007,06,19,03,24,6.90
2007,06,19,03,25,6.90
2007,06,19,03,26,6.90
2007,06,19,03,27,6.90
2007,06,19,03,28,6.90
2007,06,19,03,29,6.90
2007,06,19,03,30,6.90
2007,06,19,03,31,7.00
2007,06,19,03,32,6.90
2007,06,19,03,33,6.90
2007,06,19,03,34,6.90
2007,06,19,03,35,6.90
2007,06,19,03,36,6.90
2007,06,19,03,37,6.90
2007,06,19,03,38,6.90
2007,06,19,03,39,6.90
2007,06,19,03,40,6.90
2007,06,19,03,41,6.90
2007,06,19,03,42,6.90
2007,06,19,03,43,6.90
2007,06,19,03,44,6.90
2007,06,19,03,45,6.90
2007,06,19,03,46,6.90
2007,06,19,03,47,6.90
2007,06,19,03,48,6.80
2007,06,19,03,49,6.80
2007,06,19,03,50,6.80
2007,06,19,03,51,6.80
2007,06,19,03,52,6.80
2007,06,19,03,53,6.80
2007,06,19,03,54,6.80
2007,06,19,03,55,6.80
2007,06,19,03,56,6.70
2007,06,19,03,57,6.70
2007,06,19,03,58,6.70
2007,06,19,03,59,6.70
2007,06,19,04,00,6.70
2007,06,19,04,01,6.70
2007,06,19,04,02,6.70
2007,06,19,04,03,6.70
2007,06,19,04,04,6.70
2007,06,19,04,06,6.70
2007,06,19,04,07,6.60
2007,06,19,04,08,6.60
2007,06,19,04,09,6.60
2007,06,19,04,10,6.60
2007,06,19,04,11,6.60
2007,06,19,04,12,6.60
2007,06,19,04,13,6.50
2007,06,19,04,14,6.50
2007,06,19,04,15,6.40
2007,06,19,04,16,6.40
2007,06,19,04,17,6.40
2007,06,19,04,18,6.40
2007,06,19,04,19,6.40
2007,06,19,04,20,6.30
2007,06,19,04,21,6.30
2007,06,19,04,22,6.30
2007,06,19,04,23,6.30
2007,06,19,04,24,6.30
2007,06,19,04,25,6.30
2007,06,19,04,26,6.30
2007,06,19,04,27,6.30
2007,06,19,04,28,6.30
2007,06,19,04,29,6.30
2007,06,19,04,30,6.20
2007,06,19,04,31,6.20
2007,06,19,04,32,6.20
2007,06,19,04,33,6.20
2007,06,19,04,34,6.20
2007,06,19,04,35,6.20
2007,06,19,04,36,6.10
2007,06,19,04,37,6.10
2007,06,19,04,38,6.10
2007,06,19,04,39,6.10
2007,06,19,04,40,6.10
2007,06,19,04,41,6.10
2007,06,19,04,42,6.00
2007,06,19,04,43,6.00
2007,06,19,04,44,6.00
2007,06,19,04,45,6.00
2007,06,19,04,46,6.00
2007,06,19,04,47,6.00
2007,06,19,04,48,5.90
2007,06,19,04,49,5.90
2007,06,19,04,50,5.90
2007,06,19,04,51,5.90
2007,06,19,04,52,5.90
2007,06,19,04,53,5.90
2007,06,19,04,54,5.80
2007,06,19,04,55,5.80
2007,06,19,04,56,5.80
2007,06,19,04,57,5.80
2007,06,19,04,58,5.80
2007,06,19,04,59,5.80
2007,06,19,05,00,5.80
2007,06,19,05,01,5.80
2007,06,19,05,02,5.70
2007,06,19,05,03,5.70
2007,06,19,05,04,5.70
2007,06,19,05,05,5.70
2007,06,19,05,06,5.70
2007,06,19,05,07,5.70
2007,06,19,05,08,5.70
2007,06,19,05,09,5.60
2007,06,19,05,10,5.60
2007,06,19,05,11,5.60
2007,06,19,05,12,5.60
2007,06,19,05,13,5.60
2007,06,19,05,14,5.60
2007,06,19,05,15,5.60
2007,06,19,05,16,5.60
2007,06,19,05,17,5.60
2007,06,19,05,18,5.60
2007,06,19,05,19,5.60
2007,06,19,05,20,5.60
2007,06,19,05,21,5.60
2007,06,19,05,22,5.60
2007,06,19,05,23,5.60
2007,06,19,05,24,5.50
2007,06,19,05,25,5.60
2007,06,19,05,26,5.60
2007,06,19,05,27,5.50
2007,06,19,05,28,5.50
2007,06,19,05,29,5.50
2007,06,19,05,30,5.50
2007,06,19,05,31,5.50
2007,06,19,05,32,5.50
2007,06,19,05,33,5.40
2007,06,19,05,34,5.40
2007,06,19,05,35,5.40
2007,06,19,05,36,5.40
2007,06,19,05,37,5.40
2007,06,19,05,38,5.40
2007,06,19,05,39,5.40
2007,06,19,05,40,5.40
2007,06,19,05,41,5.30
2007,06,19,05,42,5.30
2007,06,19,05,43,5.30
2007,06,19,05,44,5.30
2007,06,19,05,45,5.30
2007,06,19,05,46,5.30
2007,06,19,05,47,5.30
2007,06,19,05,48,5.30
2007,06,19,05,49,5.30
2007,06,19,05,50,5.30
2007,06,19,05,51,5.30
2007,06,19,05,52,5.30
2007,06,19,05,53,5.30
2007,06,19,05,54,5.30
2007,06,19,05,55,5.30
2007,06,19,05,56,5.30
2007,06,19,05,57,5.30
2007,06,19,05,58,5.30
2007,06,19,05,59,5.30
2007,06,19,06,00,5.30
2007,06,19,06,01,5.20
2007,06,19,06,02,5.20
2007,06,19,06,03,5.20
2007,06,19,06,04,5.20
2007,06,19,06,05,5.20
2007,06,19,06,06,5.20
2007,06,19,06,07,5.20
2007,06,19,06,08,5.20
2007,06,19,06,09,5.20
2007,06,19,06,10,5.20
2007,06,19,06,11,5.20
2007,06,19,06,12,5.20
2007,06,19,06,13,5.20
2007,06,19,06,14,5.20
2007,06,19,06,15,5.20
2007,06,19,06,16,5.20
2007,06,19,06,17,5.20
2007,06,19,06,18,5.30
2007,06,19,06,19,5.30
2007,06,19,06,20,5.30
2007,06,19,06,21,5.30
2007,06,19,06,22,5.30
2007,06,19,06,23,5.30
2007,06,19,06,24,5.30
2007,06,19,06,25,5.30
2007,06,19,06,26,5.30
2007,06,19,06,27,5.40
2007,06,19,06,28,5.40
2007,06,19,06,29,5.40
2007,06,19,06,30,5.40
2007,06,19,06,31,5.40
2007,06,19,06,32,5.40
2007,06,19,06,33,5.40
2007,06,19,06,34,5.40
2007,06,19,06,35,5.40
2007,06,19,06,36,5.40
2007,06,19,06,37,5.40
2007,06,19,06,38,5.40
2007,06,19,06,39,5.40
2007,06,19,06,40,5.40
2007,06,19,06,41,5.50
2007,06,19,06,42,5.50
2007,06,19,06,43,5.50
2007,06,19,06,44,5.50
2007,06,19,06,45,5.60
2007,06,19,06,46,5.60
2007,06,19,06,47,5.60
2007,06,19,06,48,5.60
2007,06,19,06,49,5.60
2007,06,19,06,50,5.60
2007,06,19,06,51,5.70
2007,06,19,06,52,5.70
2007,06,19,06,53,5.70
2007,06,19,06,54,5.70
2007,06,19,06,55,5.70
2007,06,19,06,56,5.80
2007,06,19,06,57,5.80
2007,06,19,06,58,5.80
2007,06,19,06,59,5.90
2007,06,19,07,00,5.90
2007,06,19,07,01,6.00
2007,06,19,07,02,6.00
2007,06,19,07,03,6.10
2007,06,19,07,04,6.10
2007,06,19,07,05,6.20
2007,06,19,07,06,6.20
2007,06,19,07,07,6.30
2007,06,19,07,08,6.40
2007,06,19,07,09,6.50
2007,06,19,07,10,6.60
2007,06,19,07,11,6.70
2007,06,19,07,12,6.90
2007,06,19,07,13,7.00
2007,06,19,07,14,7.20
2007,06,19,07,15,7.20
2007,06,19,07,16,7.30
2007,06,19,07,17,7.40
2007,06,19,07,18,7.50
2007,06,19,07,19,7.60
2007,06,19,07,20,7.70
2007,06,19,07,21,7.80
2007,06,19,07,22,8.00
2007,06,19,07,23,8.10
2007,06,19,07,24,8.20
2007,06,19,07,25,8.40
2007,06,19,07,26,8.50
2007,06,19,07,27,8.70
2007,06,19,07,28,8.80
2007,06,19,07,29,8.90
2007,06,19,07,30,9.10
2007,06,19,07,31,9.20
2007,06,19,07,32,9.30
2007,06,19,07,33,9.40
2007,06,19,07,34,9.60
2007,06,19,07,35,9.60
2007,06,19,07,36,9.80
2007,06,19,07,37,9.90
2007,06,19,07,38,10.10
2007,06,19,07,39,10.20
2007,06,19,07,40,10.30
2007,06,19,07,41,10.50
2007,06,19,07,42,10.60
2007,06,19,07,43,10.70
2007,06,19,07,44,10.80
2007,06,19,07,45,10.90
2007,06,19,07,46,10.90
2007,06,19,07,47,10.90
2007,06,19,07,48,10.80
2007,06,19,07,49,10.80
2007,06,19,07,50,10.80
2007,06,19,07,51,10.80
2007,06,19,07,52,10.70
2007,06,19,07,53,10.70
2007,06,19,07,54,10.60
2007,06,19,07,55,10.60
2007,06,19,07,56,10.60
2007,06,19,07,57,10.60
2007,06,19,07,58,10.60
2007,06,19,07,59,10.60
2007,06,19,08,00,10.70
2007,06,19,08,01,10.70
2007,06,19,08,02,10.70
2007,06,19,08,03,10.80
2007,06,19,08,04,10.80
2007,06,19,08,05,10.80
2007,06,19,08,06,10.90
2007,06,19,08,07,11.00
2007,06,19,08,08,11.10
2007,06,19,08,09,11.20
2007,06,19,08,10,11.30
2007,06,19,08,11,11.40
2007,06,19,08,12,11.50
2007,06,19,08,13,11.60
2007,06,19,08,14,11.60
2007,06,19,08,15,11.60
2007,06,19,08,16,11.70
2007,06,19,08,17,11.70
2007,06,19,08,18,11.70
2007,06,19,08,19,11.80
2007,06,19,08,20,11.80
2007,06,19,08,21,11.90
2007,06,19,08,22,12.00
2007,06,19,08,23,12.10
2007,06,19,08,24,12.20
2007,06,19,08,25,12.30
2007,06,19,08,26,12.40
2007,06,19,08,27,12.50
2007,06,19,08,28,12.60
2007,06,19,08,29,12.70
2007,06,19,08,30,12.70
2007,06,19,08,31,12.70
2007,06,19,08,32,12.70
2007,06,19,08,33,12.70
2007,06,19,08,34,12.60
2007,06,19,08,35,12.60
2007,06,19,08,36,12.70
2007,06,19,08,37,12.70
2007,06,19,08,38,12.70
2007,06,19,08,39,12.70
2007,06,19,08,40,12.70
2007,06,19,08,41,12.80
2007,06,19,08,42,12.90
2007,06,19,08,43,12.90
2007,06,19,08,44,13.00
2007,06,19,08,45,13.10
2007,06,19,08,46,13.20
2007,06,19,08,47,13.20
2007,06,19,08,48,13.30
2007,06,19,08,49,13.40
2007,06,19,08,50,13.40
2007,06,19,08,51,13.40
2007,06,19,08,52,13.50
2007,06,19,08,53,13.50
2007,06,19,08,54,13.60
2007,06,19,08,55,13.60
2007,06,19,08,56,13.70
2007,06,19,08,57,13.70
2007,06,19,08,58,13.60
2007,06,19,08,59,13.60
2007,06,19,09,00,13.50
2007,06,19,09,01,13.50
2007,06,19,09,02,13.40
2007,06,19,09,03,13.40
2007,06,19,09,04,13.40
2007,06,19,09,05,13.50
2007,06,19,09,06,13.60
2007,06,19,09,07,13.60
2007,06,19,09,08,13.70
2007,06,19,09,09,13.70
2007,06,19,09,10,13.80
2007,06,19,09,11,14.00
2007,06,19,09,12,14.00
2007,06,19,09,13,14.10
2007,06,19,09,14,14.20
2007,06,19,09,15,14.20
2007,06,19,09,16,14.30
2007,06,19,09,17,14.30
2007,06,19,09,18,14.30
2007,06,19,09,19,14.30
2007,06,19,09,20,14.30
2007,06,19,09,21,14.30
2007,06,19,09,22,14.30
2007,06,19,09,23,14.40
2007,06,19,09,24,14.60
2007,06,19,09,25,14.70
2007,06,19,09,26,14.80
2007,06,19,09,27,15.00
2007,06,19,09,28,15.00
2007,06,19,09,29,15.00
2007,06,19,09,30,15.10
2007,06,19,09,31,15.20
2007,06,19,09,32,15.30
2007,06,19,09,33,15.40
2007,06,19,09,34,15.50
2007,06,19,09,35,15.60
2007,06,19,09,36,15.70
2007,06,19,09,37,15.80
2007,06,19,09,38,15.90
2007,06,19,09,39,15.90
2007,06,19,09,40,16.00
2007,06,19,09,41,16.00
2007,06,19,09,42,16.10
2007,06,19,09,43,16.20
2007,06,19,09,44,16.20
2007,06,19,09,45,16.30
2007,06,19,09,46,16.20
2007,06,19,09,47,16.10
2007,06,19,09,48,16.10
2007,06,19,09,49,16.00
2007,06,19,09,50,16.00
2007,06,19,09,51,16.00
2007,06,19,09,52,16.10
2007,06,19,09,53,16.20
2007,06,19,09,54,16.30
2007,06,19,09,55,16.30
2007,06,19,09,56,16.30
2007,06,19,09,57,16.20
2007,06,19,09,58,16.10
2007,06,19,09,59,16.00
2007,06,19,10,00,16.00
2007,06,19,10,01,16.00
2007,06,19,10,02,16.00
2007,06,19,10,03,16.00
2007,06,19,10,04,16.10
2007,06,19,10,05,16.10
2007,06,19,10,06,16.20
2007,06,19,10,07,16.20
2007,06,19,10,08,16.20
2007,06,19,10,09,16.30
2007,06,19,10,10,16.40
2007,06,19,10,11,16.50
2007,06,19,10,12,16.60
2007,06,19,10,13,16.60
2007,06,19,10,14,16.70
2007,06,19,10,15,16.70
2007,06,19,10,16,16.70
2007,06,19,10,17,16.80
2007,06,19,10,18,16.90
2007,06,19,10,19,17.00
2007,06,19,10,20,17.00
2007,06,19,10,21,17.00
2007,06,19,10,22,17.10
2007,06,19,10,23,17.20
2007,06,19,10,24,17.20
2007,06,19,10,25,17.20
2007,06,19,10,26,17.10
2007,06,19,10,27,17.00
2007,06,19,10,28,16.90
2007,06,19,10,29,16.90
2007,06,19,10,30,16.80
2007,06,19,10,31,16.70
2007,06,19,10,32,16.80
2007,06,19,10,33,16.90
2007,06,19,10,34,16.90
2007,06,19,10,35,16.80
2007,06,19,10,36,16.80
2007,06,19,10,37,16.90
2007,06,19,10,38,17.10
2007,06,19,10,39,17.30
2007,06,19,10,40,17.40
2007,06,19,10,41,17.50
2007,06,19,10,42,17.60
2007,06,19,10,43,17.70
2007,06,19,10,44,17.80
2007,06,19,10,45,17.80
2007,06,19,10,46,17.80
2007,06,19,10,47,17.80
2007,06,19,10,48,17.80
2007,06,19,10,49,17.80
2007,06,19,10,50,17.90
2007,06,19,10,51,17.90
2007,06,19,10,52,17.80
2007,06,19,10,53,17.70
2007,06,19,10,54,17.60
2007,06,19,10,55,17.40
2007,06,19,10,56,17.30
2007,06,19,10,57,17.30
2007,06,19,10,58,17.30
2007,06,19,10,59,17.40
2007,06,19,11,00,17.50
2007,06,19,11,01,17.50
2007,06,19,11,02,17.50
2007,06,19,11,03,17.50
2007,06,19,11,04,17.40
2007,06,19,11,05,17.50
2007,06,19,11,06,17.60
2007,06,19,11,07,17.60
2007,06,19,11,08,17.70
2007,06,19,11,09,17.80
2007,06,19,11,10,17.80
2007,06,19,11,11,17.70
2007,06,19,11,12,17.70
2007,06,19,11,13,17.70
2007,06,19,11,14,17.70
2007,06,19,11,15,17.70
2007,06,19,11,16,17.70
2007,06,19,11,17,17.80
2007,06,19,11,18,17.80
2007,06,19,11,19,17.80
2007,06,19,11,20,17.80
2007,06,19,11,21,17.90
2007,06,19,11,22,17.90
2007,06,19,11,23,17.90
2007,06,19,11,24,17.90
2007,06,19,11,25,17.90
2007,06,19,11,26,18.00
2007,06,19,11,27,18.00
2007,06,19,11,28,18.00
2007,06,19,11,29,18.00
2007,06,19,11,30,18.00
2007,06,19,11,31,18.10
2007,06,19,11,32,18.20
2007,06,19,11,33,18.40
2007,06,19,11,34,18.40
2007,06,19,11,35,18.50
2007,06,19,11,36,18.50
2007,06,19,11,37,18.60
2007,06,19,11,38,18.70
2007,06,19,11,39,18.80
2007,06,19,11,40,18.80
2007,06,19,11,41,18.80
2007,06,19,11,42,18.80
2007,06,19,11,43,18.80
2007,06,19,11,44,18.80
2007,06,19,11,45,18.80
2007,06,19,11,46,18.80
2007,06,19,11,47,18.80
2007,06,19,11,48,18.90
2007,06,19,11,49,19.00
2007,06,19,11,50,19.00
2007,06,19,11,51,19.20
2007,06,19,11,52,19.30
2007,06,19,11,53,19.50
2007,06,19,11,54,19.60
2007,06,19,11,55,19.80
2007,06,19,11,56,19.90
2007,06,19,11,57,19.90
2007,06,19,11,58,20.00
2007,06,19,11,59,20.10
2007,06,19,12,00,20.10
2007,06,19,12,01,20.10
2007,06,19,12,02,20.00
2007,06,19,12,03,19.80
2007,06,19,12,04,19.60
2007,06,19,12,05,19.50
2007,06,19,12,06,19.20
2007,06,19,12,07,19.00
2007,06,19,12,08,18.80
2007,06,19,12,09,18.70
2007,06,19,12,10,18.70
2007,06,19,12,11,18.90
2007,06,19,12,12,19.00
2007,06,19,12,13,19.10
2007,06,19,12,14,19.20
2007,06,19,12,15,19.40
2007,06,19,12,16,19.50
2007,06,19,12,17,19.60
2007,06,19,12,18,19.70
2007,06,19,12,19,19.90
2007,06,19,12,20,20.00
2007,06,19,12,21,20.10
2007,06,19,12,22,20.20
2007,06,19,12,23,20.30
2007,06,19,12,24,20.10
2007,06,19,12,25,19.90
2007,06,19,12,26,19.70
2007,06,19,12,27,19.60
2007,06,19,12,28,19.50
2007,06,19,12,29,19.50
2007,06,19,12,30,19.50
2007,06,19,12,31,19.60
2007,06,19,12,32,19.70
2007,06,19,12,33,19.80
2007,06,19,12,34,19.90
2007,06,19,12,35,20.00
2007,06,19,12,36,20.10
2007,06,19,12,37,20.20
2007,06,19,12,38,20.20
2007,06,19,12,39,20.20
2007,06,19,12,40,20.20
2007,06,19,12,41,20.30
2007,06,19,12,42,20.40
2007,06,19,12,43,20.50
2007,06,19,12,44,20.60
2007,06,19,12,45,20.70
2007,06,19,12,46,20.70
2007,06,19,12,47,20.80
2007,06,19,12,48,20.80
2007,06,19,12,49,20.90
2007,06,19,12,50,20.90
2007,06,19,12,51,20.90
2007,06,19,12,52,20.90
2007,06,19,12,53,20.80
2007,06,19,12,54,20.60
2007,06,19,12,55,20.50
2007,06,19,12,56,20.40
2007,06,19,12,57,20.40
2007,06,19,12,58,20.30
2007,06,19,12,59,20.40
2007,06,19,13,00,20.50
2007,06,19,13,01,20.60
2007,06,19,13,02,20.50
2007,06,19,13,03,20.40
2007,06,19,13,04,20.40
2007,06,19,13,05,20.40
2007,06,19,13,06,20.30
2007,06,19,13,07,20.20
2007,06,19,13,08,20.30
2007,06,19,13,09,20.40
2007,06,19,13,10,20.60
2007,06,19,13,11,20.80
2007,06,19,13,12,20.90
2007,06,19,13,13,20.90
2007,06,19,13,14,20.90
2007,06,19,13,15,21.00
2007,06,19,13,16,21.00
2007,06,19,13,17,21.00
2007,06,19,13,18,21.00
2007,06,19,13,19,20.90
2007,06,19,13,20,20.90
2007,06,19,13,21,20.90
2007,06,19,13,22,20.80
2007,06,19,13,23,20.70
2007,06,19,13,24,20.60
2007,06,19,13,25,20.60
2007,06,19,13,26,20.50
2007,06,19,13,27,20.40
2007,06,19,13,28,20.40
2007,06,19,13,29,20.50
2007,06,19,13,30,20.60
2007,06,19,13,31,20.80
2007,06,19,13,32,21.00
2007,06,19,13,33,21.20
2007,06,19,13,34,21.40
2007,06,19,13,35,21.40
2007,06,19,13,36,21.40
2007,06,19,13,37,21.30
2007,06,19,13,38,21.20
2007,06,19,13,39,21.20
2007,06,19,13,40,21.20
2007,06,19,13,41,21.10
2007,06,19,13,42,21.00
2007,06,19,13,43,20.90
2007,06,19,13,44,20.80
2007,06,19,13,45,20.80
2007,06,19,13,46,20.90
2007,06,19,13,47,20.90
2007,06,19,13,48,21.00
2007,06,19,13,49,21.10
2007,06,19,13,50,21.30
2007,06,19,13,51,21.30
2007,06,19,13,52,21.40
2007,06,19,13,53,21.30
2007,06,19,13,54,21.40
2007,06,19,13,55,21.40
2007,06,19,13,56,21.40
2007,06,19,13,57,21.50
2007,06,19,13,58,21.50
2007,06,19,13,59,21.60
2007,06,19,14,00,21.60
2007,06,19,14,01,21.50
2007,06,19,14,02,21.40
2007,06,19,14,03,21.40
2007,06,19,14,04,21.50
2007,06,19,14,05,21.50
2007,06,19,14,06,21.60
2007,06,19,14,07,21.70
2007,06,19,14,08,21.70
2007,06,19,14,09,21.60
2007,06,19,14,10,21.60
2007,06,19,14,11,21.50
2007,06,19,14,12,21.40
2007,06,19,14,13,21.50
2007,06,19,14,14,21.60
2007,06,19,14,15,21.70
2007,06,19,14,16,21.90
2007,06,19,14,17,22.00
2007,06,19,14,18,22.10
2007,06,19,14,19,22.20
2007,06,19,14,20,22.30
2007,06,19,14,21,22.30
2007,06,19,14,22,22.20
2007,06,19,14,23,22.10
2007,06,19,14,24,22.00
2007,06,19,14,25,21.90
2007,06,19,14,26,21.90
2007,06,19,14,27,22.00
2007,06,19,14,28,21.90
2007,06,19,14,29,21.80
2007,06,19,14,30,21.70
2007,06,19,14,31,21.70
2007,06,19,14,32,21.70
2007,06,19,14,33,21.70
2007,06,19,14,34,21.80
2007,06,19,14,35,21.80
2007,06,19,14,36,22.00
2007,06,19,14,37,22.10
2007,06,19,14,38,22.20
2007,06,19,14,39,22.20
2007,06,19,14,40,22.20
2007,06,19,14,41,22.20
2007,06,19,14,42,22.20
2007,06,19,14,43,22.20
2007,06,19,14,44,22.10
2007,06,19,14,45,22.10
2007,06,19,14,46,22.20
2007,06,19,14,47,22.30
2007,06,19,14,48,22.40
2007,06,19,14,49,22.50
2007,06,19,14,50,22.50
2007,06,19,14,51,22.50
2007,06,19,14,52,22.60
2007,06,19,14,53,22.60
2007,06,19,14,54,22.60
2007,06,19,14,55,22.60
2007,06,19,14,56,22.60
2007,06,19,14,57,22.70
2007,06,19,14,58,22.70
2007,06,19,14,59,22.60
2007,06,19,15,00,22.50
2007,06,19,15,01,22.40
2007,06,19,15,02,22.40
2007,06,19,15,03,22.40
2007,06,19,15,04,22.30
2007,06,19,15,05,22.40
2007,06,19,15,06,22.40
2007,06,19,15,07,22.40
2007,06,19,15,08,22.30
2007,06,19,15,09,22.30
2007,06,19,15,10,22.30
2007,06,19,15,11,22.30
2007,06,19,15,12,22.40
2007,06,19,15,13,22.50
2007,06,19,15,14,22.60
2007,06,19,15,15,22.80
2007,06,19,15,16,22.90
2007,06,19,15,17,22.90
2007,06,19,15,18,23.10
2007,06,19,15,19,23.20
2007,06,19,15,20,23.20
2007,06,19,15,21,23.20
2007,06,19,15,22,23.10
2007,06,19,15,23,23.00
2007,06,19,15,24,22.90
2007,06,19,15,25,23.00
2007,06,19,15,26,23.00
2007,06,19,15,27,22.90
2007,06,19,15,28,22.90
2007,06,19,15,29,22.90
2007,06,19,15,30,22.90
2007,06,19,15,31,22.90
2007,06,19,15,32,22.80
2007,06,19,15,33,22.90
2007,06,19,15,34,22.90
2007,06,19,15,35,23.00
2007,06,19,15,36,23.10
2007,06,19,15,37,23.20
2007,06,19,15,38,23.40
2007,06,19,15,39,23.40
2007,06,19,15,40,23.40
2007,06,19,15,41,23.40
2007,06,19,15,42,23.40
2007,06,19,15,43,23.50
2007,06,19,15,44,23.60
2007,06,19,15,45,23.40
2007,06,19,15,46,23.40
2007,06,19,15,47,23.40
2007,06,19,15,48,23.40
2007,06,19,15,49,23.40
2007,06,19,15,50,23.40
2007,06,19,15,51,23.40
2007,06,19,15,52,23.40
2007,06,19,15,53,23.40
2007,06,19,15,54,23.40
2007,06,19,15,55,23.40
2007,06,19,15,56,23.30
2007,06,19,15,57,23.30
2007,06,19,15,58,23.40
2007,06,19,15,59,23.50
2007,06,19,16,00,23.60
2007,06,19,16,01,23.60
2007,06,19,16,02,23.70
2007,06,19,16,03,23.60
2007,06,19,16,04,23.50
2007,06,19,16,05,23.50
2007,06,19,16,06,23.50
2007,06,19,16,07,23.50
2007,06,19,16,08,23.50
2007,06,19,16,09,23.50
2007,06,19,16,10,23.50
2007,06,19,16,11,23.60
2007,06,19,16,12,23.60
2007,06,19,16,13,23.60
2007,06,19,16,14,23.60
2007,06,19,16,15,23.60
2007,06,19,16,16,23.70
2007,06,19,16,17,23.70
2007,06,19,16,18,23.70
2007,06,19,16,19,23.60
2007,06,19,16,20,23.60
2007,06,19,16,21,23.50
2007,06,19,16,22,23.40
2007,06,19,16,23,23.50
2007,06,19,16,24,23.50
2007,06,19,16,25,23.60
2007,06,19,16,26,23.60
2007,06,19,16,27,23.50
2007,06,19,16,28,23.50
2007,06,19,16,29,23.40
2007,06,19,16,30,23.40
2007,06,19,16,31,23.30
2007,06,19,16,32,23.30
2007,06,19,16,33,23.30
2007,06,19,16,34,23.20
2007,06,19,16,35,23.20
2007,06,19,16,36,23.10
2007,06,19,16,37,23.10
2007,06,19,16,38,23.10
2007,06,19,16,39,23.00
2007,06,19,16,40,22.90
2007,06,19,16,41,22.80
2007,06,19,16,42,22.80
2007,06,19,16,43,22.80
2007,06,19,16,44,22.80
2007,06,19,16,45,22.90
2007,06,19,16,46,23.00
2007,06,19,16,47,23.10
2007,06,19,16,48,23.10
2007,06,19,16,49,23.10
2007,06,19,16,50,23.20
2007,06,19,16,51,23.10
2007,06,19,16,52,23.10
2007,06,19,16,53,23.10
2007,06,19,16,54,23.10
2007,06,19,16,55,23.20
2007,06,19,16,56,23.20
2007,06,19,16,57,23.20
2007,06,19,16,58,23.20
2007,06,19,16,59,23.30
2007,06,19,17,00,23.30
2007,06,19,17,01,23.40
2007,06,19,17,02,23.40
2007,06,19,17,03,23.40
2007,06,19,17,04,23.40
2007,06,19,17,05,23.30
2007,06,19,17,06,23.20
2007,06,19,17,07,23.10
2007,06,19,17,08,23.10
2007,06,19,17,09,23.10
2007,06,19,17,10,23.00
2007,06,19,17,11,22.90
2007,06,19,17,12,22.80
2007,06,19,17,13,22.80
2007,06,19,17,14,22.70
2007,06,19,17,15,22.70
2007,06,19,17,16,22.70
2007,06,19,17,17,22.70
2007,06,19,17,18,22.80
2007,06,19,17,19,22.80
2007,06,19,17,20,22.80
2007,06,19,17,21,22.80
2007,06,19,17,22,22.80
2007,06,19,17,23,22.80
2007,06,19,17,24,22.80
2007,06,19,17,25,22.80
2007,06,19,17,26,22.70
2007,06,19,17,27,22.70
2007,06,19,17,28,22.70
2007,06,19,17,29,22.60
2007,06,19,17,30,22.60
2007,06,19,17,31,22.60
2007,06,19,17,32,22.60
2007,06,19,17,33,22.60
2007,06,19,17,34,22.60
2007,06,19,17,35,22.60
2007,06,19,17,36,22.60
2007,06,19,17,37,22.60
2007,06,19,17,38,22.50
2007,06,19,17,39,22.50
2007,06,19,17,40,22.50